www.pogodaiklimat.ru

Погода и климат >> Архив погоды >> Аргентина >> Пилар


ПОГОДА в Пиларе

  • Прогноз погоды в Пиларе
  • Монитор погоды в Пиларе

АРХИВ ПОГОДЫ в Пиларе

Время (UTC), дата Ветер
(напр.,м/с)
 
Видим.   Явления Облачность Т
(С)
Тd
(С)
f
(%)
Тe
(С)
Тes
(С)
Комфортность P
(гПа)
Po
(гПа)
Тmin
(С)
Tmax
(С)
R
(мм)
R24
(мм)
S
(см)
06 17.02 штиль 0 10 км ясно +19.1 +15.8 81 +20 +20 1013.9 975.3
09 17.02 СЗ 2 10 км ясно +17.5 +15.5 88 +18 +18 1013.0 974.4
12 17.02 С 2 10 км ясно +21.8 +18.3 81 +27 +32 душно 1014.1 975.4 +16.2 +22.6
15 17.02 С 5 10 км ясно +26.8 +18.8 62 +32 +41 очень
душно
1013.0 974.5
21 17.02 С 6 10 км ясно +28.6 +20.0 60 +35 +36 очень
душно
1009.2 970.8
00 18.02 СВ 1 10 км ясно +24.1 +20.3 79 +30 +30 очень
душно
1009.6 971.2 +21.8 +28.6
03 18.02 С 2 10 км ясно +21.7 +19.4 87 +27 +27 душно 1010.2 971.8
06 18.02 С 1 10 км ясно +21.5 +19.3 87 +26 +26 душно 1009.2 971.0
09 18.02 С 2 10 км ясно +19.2 +18.1 93 +22 +22 комфорт 1007.9 969.7
12 18.02 С 3 10 км ясно +23.4 +19.6 79 +30 +34 очень
душно
1009.2 970.9 +18.5 +24.1
15 18.02 С 4 10 км 3/3 600 м
[Cu hum]
+28.4 +20.6 63 +35 +43 очень
душно
1009.8 971.6
18 18.02 С 4 10 км 3/1 750 м
[Cu hum Ac cast]
+30.2 +20.5 56 +37 +45 очень
душно
1007.6 969.6
21 18.02 С 3 10 км 3/0
[Ac cast Ci sp]
+30.0 +20.5 57 +37 +39 очень
душно
1006.3 968.2
00 19.02 штиль 0 10 км ясно +25.2 +21.9 82 +32 +32 очень
душно
1007.0 968.9 +23.4 +30.5
03 19.02 З 1 10 км ясно +23.5 +21.2 87 +30 +30 очень
душно
1008.8 970.8
06 19.02 СЗ 3 10 км ясно +21.7 +20.3 92 +27 +27 душно 1007.0 969.0
09 19.02 Ю 1 6000 м дымка 1/0
[Ac As]
+19.6 +19.0 96 +24 +24 комфорт 1007.6 969.4
12 19.02 Ю 1 8000 м дымка 1/0
[Ci]
+22.1 +20.1 88 +28 +34 душно 1008.7 970.4 +18.2 +25.2
15 19.02 В 2 10 км ясно +29.9 +22.8 66 +40 +57 опасность
солнечного
удара
1008.7 970.8
18 19.02 В 1 10 км 3/3 600 м
[Cu med, cong]
+32.1 +21.8 55 +41 +55 опасность
перегрева
1007.9 970.0
21 19.02 СВ 2 10 км 4/1 600 м
[Cu med, cong Cs]
+31.5 +21.7 56 +40 +42 очень
душно
1005.9 968.0
00 20.02 штиль 0 10 км 1/0
[Cs]
+26.1 +23.7 87 +36 +36 очень
душно
1007.0 968.8 +22.0 +32.6
03 20.02 СЗ 2 10 км ясно +24.3 +21.0 82 +31 +31 очень
душно
1008.7 970.8
06 20.02 С 2 10 км ясно +23.5 +20.3 82 +29 +29 душно 1007.6 969.8
09 20.02 С 2 10 км ясно +21.9 +18.4 81 +27 +27 душно 1007.8 969.8
12 20.02 С 4 10 км ясно +26.0 +20.6 72 +32 +35 очень
душно
1008.4 970.4 +20.9 +26.1
15 20.02 С 6 10 км ясно +31.2 +22.4 60 +41 +48 опасность
перегрева
1007.8 970.1
18 20.02 С 6 10 км ясно +33.0 +23.3 57 +44 +50 опасность
перегрева
1005.8 968.2
21 20.02 С 4 10 км ясно +32.6 +21.0 51 +40 +42 очень
душно
1004.1 966.4
00 21.02 С 3 10 км ясно +27.2 +20.8 68 +34 +34 очень
душно
1004.9 967.0 +26.0 +33.7
03 21.02 СЗ 3 10 км ясно +24.0 +21.3 85 +30 +30 очень
душно
1006.2 968.5
06 21.02 С 4 10 км ясно +24.2 +20.7 81 +30 +30 очень
душно
1004.0 966.5
09 21.02 С 2 10 км ясно +22.0 +20.3 90 +28 +28 душно 1006.9 969.0
12 21.02 С 3 10 км ясно +25.1 +21.5 80 +32 +36 очень
душно
1008.5 970.5 +20.8 +27.2
15 21.02 С 5 10 км ясно +30.0 +23.1 67 +40 +49 очень
душно
1008.7 970.8
18 21.02 С 5 10 км ясно +32.6 +23.8 60 +44 +52 опасность
перегрева
1006.9 969.3
21 21.02 С 4 10 км 1/0
[Ci fib]
+33.2 +22.2 53 +42 +44 опасность
перегрева
1005.9 968.2
00 22.02 С 3 10 км ясно +27.8 +22.6 73 +37 +37 очень
душно
1006.6 968.6 +25.1 +33.3
03 22.02 СЗ 2 10 км ясно +25.3 +21.6 80 +32 +32 очень
душно
1008.3 970.5
06 22.02 С 3 10 км ясно +24.4 +20.1 77 +30 +30 очень
душно
1007.5 969.8
09 22.02 С 3 10 км ясно +23.6 +19.9 80 +29 +29 душно 1007.0 969.4
12 22.02 С 4 10 км ясно +25.9 +21.3 76 +33 +36 очень
душно
1008.4 970.5 +22.0 +27.8
15 22.02 С 6 10 км 1/0
[Ci sp]
+30.6 +23.5 66 +41 +48 опасность
перегрева
1007.4 969.7
18 22.02 С 5 10 км 4/3 900 м
[Cu med, cong Ci ing]
+33.2 +24.3 60 +46 +51 опасность
перегрева
1005.8 968.2
21 22.02 СЗ 5 1500 м сильн. гроза, ливневой дождь 10/10 900 м
[Cb cap]
+27.0 +26.2 95 +41 +41 опасность
перегрева
1006.8 968.8
00 23.02 З 2 10 км в посл. час гроза {дождь} туман 8/5 360 м
[Cb cap As op]
+25.0 +23.6 92 +34 +34 очень
душно
1008.2 970.2 +23.0 +33.6 16
03 23.02 Ю 3 10 км 10/6 360 м
[Sc Ac As]
+24.7 +22.5 88 +32 +32 очень
душно
1009.4 971.6
06 23.02 Ю 4 10 км 10/8 300 м
[St Ac As]
+23.7 +22.1 91 +31 +31 очень
душно
1008.0 970.2
09 23.02 Ю 1 10 км 9/0
[Ac As Cs]
+22.6 +20.9 90 +30 +30 очень
душно
1006.7 968.6
12 23.02 Ю 3 10 км 9/8 210 м
[Sc Ac As]
+22.7 +21.0 90 +30 +30 очень
душно
1007.1 968.9 +21.9 +25.0 16
15 23.02 Ю 2 10 км 10/10 450 м
[Sc]
+23.5 +21.2 87 +30 +30 очень
душно
1006.4 968.2
18 23.02 ЮВ 2 10 км 10/10 450 м
[Sc]
+25.4 +21.8 80 +33 +33 очень
душно
1003.6 965.6
21 23.02 Ю 3 10 км 9/9 450 м
[Cu Sc]
+25.7 +22.2 81 +33 +34 очень
душно
1002.8 964.8
00 24.02 Ю 3 10 км 10/10 210 м
[Sc]
+22.7 +21.2 91 +30 +30 очень
душно
1005.0 966.6 +22.7 +27.5
03 24.02 Ю 2 10 км зарница 8/6 450 м
[Cb cap Ac As]
+21.2 +20.1 93 +26 +26 душно 1004.5 966.2

 

Местоположение метеостанции Пилар (Аргентина): широта -31.66 долгота -63.88 высота над уровнем моря 338 м.

В архиве по умолчанию представлена погода в Пиларе за последнюю неделю. Архивные данные за месяц целиком и за предыдущие месяцы, начиная с января 2011 года, Вы можете получить, выбрав интересующий диапазон дат из раскрывающегося списка и нажав кнопку "Ввод!".


*Определитесь, кто Вы:
робот инопланетянин человек

Внимание! Время в таблицах - всемирное. Для получения местного времени необходимо прибавить поправку, которая равна -3 ч.

Смотрите также архив погоды в соседних городах и на ближайших метеорологических станциях:

Погода в Кордове (Аргентина) (50 км)
Погода в Вилла Долорес (Аргентина) (122 км)
Погода в Рио-Куарто (Аргентина) (163 км)
Погода в Вилла де Мария дель Рио Секо (Аргентина) (197 км)
Погода в Маркос Хуарес (Аргентина) (200 км)
Погода в Вилья Рейнольдс (Аргентина) (270 км)
Погода в Сересе (Аргентина) (271 км)
Погода в Чамикале (Аргентина) (271 км)
Погода в Лабоулайе (Аргентина) (279 км)
Погода в Санта-Фе (Аргентина) (291 км)

Пояснения к столбцам:

Ветер - указаны скорость ветра в м/с - средняя за 10 мин, порывы в срок и между сроками (в фигурных скобках) и направление, откуда дует ветер: С - северный, СВ - северо-восточный, В - восточный, ЮВ - юго-восточный, Ю - южный, ЮЗ - юго-западный, З - западный, СЗ - северо-западный.
Видимость - горизонтальная дальность видимости в метрах или километрах. При видимости от 1 до 10 км при отсутствии осадков обычно наблюдается дымка, при ухудшении видимости до 1 км и менее - туман. В сухую погоду видимость может ухудшаться дымом, пылью или мглою.
Явления - указаны атмосферные явления, наблюдавшиеся в срок или в последний час перед сроком; фигурными скобками обозначены явления, наблюдавшиеся между сроками (за 1-3 часа до срока); квадратными скобками обозначены град или гололедные отложения с указанием их диаметра в мм.
Облачность - указаны через наклонную черту общая и нижняя облачность в баллах и высота нижней границы облаков в метрах; квадратными скобками обозначены формы облаков: Ci - перистые, Cs - перисто-слоистые, Cc - перисто-кучевые, Ac - высококучевые, As - высокослоистые, Sc - слоисто-кучевые, Ns - слоисто-дождевые, Cu - кучевые, Cb - кучево-дождевые. Подробнее классификацию облаков см. в Атласе облаков (PDF).
T - Температура воздуха - температура, измеренная на высоте 2 м над землей.
Td - Температура точки росы - температура, при понижении до которой содержащийся в воздухе водяной пар достигнет насыщения.
f - Относительная влажность воздуха - влажноcть воздуха, измеренная на высоте 2 м над землей.
Te - Эффективная температура - температура, которую ощущает одетый по сезону человек в тени. Характеристика душности погоды. При расчете учитывается влияние влажности воздуха и скорости ветра на теплоощущения человека.
Tes - Эффективная температура на солнце - температура, которую ощущает человек, с поправкой на солнечный нагрев. Характеристика знойности погоды. Зависит от высоты солнца над горизонтом, облачности и скорости ветра. Ночью, в пасмурную погоду, а также при ветре 12 м/с и более поправка равна нулю.
P - Атмосферное давление - приведенное к уровню моря атмосферное давление.
Po - Атмосферное давление - измеренное на уровне метеостанции атмосферное давление.
Tmin - Минимальная температура - минимум температуры воздуха на высоте 2 м над землей.
Tmax - Максимальная температура - максимум температуры воздуха на высоте 2 м над землей.
R - Количество осадков - Количество выпавших осадков за период времени, мм. При наведении курсора мыши на число - период времени, за который выпало указанное количество осадков.
R24 - Количество осадков - Количество выпавших осадков за 24 часа, мм.
S - Снежный покров - Высота снежного покрова, см. При наведении курсора мыши на число - состояние снежного покрова и степень покрытия местности в баллах.